Location: Kott?ru
(16.6209°N, 80.6208°E)
Time: 16:26:13
(UTC+00:00)

ADEOS Rocket - Pass Details

Date: 18 September 2020
Orbit: 858 x 1307 km, 98.7° (Epoch: 20 October)

Event Time Altitude Azimuth Distance (km) Brightness Sun altitude
Rises 23:21:27 0° 170° (S) 4,234 6.4 -16.3°
Reaches altitude 10° 23:24:13 10° 171° (S) 3,231 5.7 -15.6°
Maximum altitude 23:31:41 78° 257° (WSW) 1,208 3.3 -13.9°
Drops below altitude 10° 23:38:28 10° 344° (NNW) 2,949 5.4 -12.2°
Sets 23:40:54 0° 345° (NNW) 3,845 6.0 -11.7°
